WetterOnline ( https://www.wetteronline.de )

Wetter aktuell Wiesloch

Aktuelles Wetter: Mannheim (100m)

6-stündlich | Neueste Meldungen
Ortszeit Temperatur Wetter
Mo, 06.12. 1:00 3.0° C bedeckt
So, 05.12. 19:00 4.0° C bedeckt
So, 05.12. 13:00 5.5° C bewölkt
So, 05.12. 7:00 3.3° C bewölkt
So, 05.12. 1:00 5.1° C bewölkt
Sa, 04.12. 19:00 7.6° C bedeckt
Sa, 04.12. 13:00 5.2° C leichter Regen
Sa, 04.12. 7:00 2.3° C leichter Regen
Ortszeit Temperatur Wetter
Mo, 06.12. 4:30 0.3° C bedeckt
Mo, 06.12. 4:20 0.3° C Dunst
Mo, 06.12. 4:10 0.3° C bedeckt
Mo, 06.12. 4:00 0.4° C bewölkt
Mo, 06.12. 3:50 0.4° C Dunst
Mo, 06.12. 3:40 0.9° C Dunst
Mo, 06.12. 3:30 1.1° C wolkig
Mo, 06.12. 3:00 1.6° C bedeckt
Mo, 06.12. 2:30 1.5° C leicht bewölkt
Mo, 06.12. 2:00 2.2° C bewölkt
Mo, 06.12. 1:30 2.6° C bedeckt
Ortszeit Relative Feuchte Sichtweite
Mo, 06.12. 1:00 94% 25 km
So, 05.12. 19:00 87% 50 km
So, 05.12. 13:00 81% 55 km
So, 05.12. 7:00 91% 50 km
So, 05.12. 1:00 76% 50 km
Sa, 04.12. 19:00 84% 60 km
Sa, 04.12. 13:00 99% 4.4 km
Sa, 04.12. 7:00 99% 6 km
Ortszeit Relative Feuchte Sichtweite
Mo, 06.12. 4:30 98% 7 km
Mo, 06.12. 4:20 98% -
Mo, 06.12. 4:10 99% -
Mo, 06.12. 4:00 98% 5.0 km
Mo, 06.12. 3:50 98% -
Mo, 06.12. 3:40 99% -
Mo, 06.12. 3:30 99% 13 km
Mo, 06.12. 3:00 97% 12 km
Mo, 06.12. 2:30 96% 15 km
Mo, 06.12. 2:00 96% 15 km
Mo, 06.12. 1:30 94% 19 km
Ortszeit Niederschlagsmenge Niederschlagsart
Mo, 06.12. 1:00 0.0 l/m2 in 6 Std. -
So, 05.12. 19:00 0.1 l/m2 in 12 Std. -
So, 05.12. 13:00 0.1 l/m2 in 6 Std. Regen
So, 05.12. 7:00 0.1 l/m2 in 12 Std. Regen
So, 05.12. 1:00 0.0 l/m2 in 6 Std. -
Sa, 04.12. 19:00 9 l/m2 in 12 Std. Regen
Sa, 04.12. 13:00 3 l/m2 in 6 Std. Regen
Sa, 04.12. 7:00 7 l/m2 in 12 Std. Schnee, Regen
Ortszeit Niederschlagsmenge Niederschlagsart
Mo, 06.12. 4:30 0.0 l/m2 in 1 Std. -
Mo, 06.12. 4:20 keine Meldung -
Mo, 06.12. 4:10 keine Meldung -
Mo, 06.12. 4:00 0.0 l/m2 in 1 Std. -
Mo, 06.12. 3:50 keine Meldung -
Mo, 06.12. 3:40 keine Meldung -
Mo, 06.12. 3:30 0.0 l/m2 in 1 Std. -
Mo, 06.12. 3:00 0.0 l/m2 in 1 Std. -
Mo, 06.12. 2:30 0.0 l/m2 in 1 Std. -
Mo, 06.12. 2:00 0.0 l/m2 in 1 Std. -
Mo, 06.12. 1:30 0.0 l/m2 in 1 Std. -
Ortszeit Stärke Spitze Richtung
km/h Bft. km/h Grad Sektor
Mo, 06.12. 1:00 4 1 7 130° SO
So, 05.12. 19:00 2 1 20 50° NO
So, 05.12. 13:00 15 3 26 160° S
So, 05.12. 7:00 14 3 36 170° S
So, 05.12. 1:00 11 2 43 180° S
Sa, 04.12. 19:00 17 3 33 280° W
Sa, 04.12. 13:00 0 0 11 - -
Sa, 04.12. 7:00 4 1 22 190° S
Ortszeit Stärke Spitze Richtung
km/h Bft. km/h Grad Sektor
Mo, 06.12. 4:30 0 0 4 - -
Mo, 06.12. 4:20 2 1 - 290° W
Mo, 06.12. 4:10 2 1 - 260° W
Mo, 06.12. 4:00 0 0 4 - -
Mo, 06.12. 3:50 2 1 - 350° N
Mo, 06.12. 3:40 0 0 - 40° NO
Mo, 06.12. 3:30 4 1 4 350° N
Mo, 06.12. 3:00 4 1 7 340° N
Mo, 06.12. 2:30 4 1 7 20° N
Mo, 06.12. 2:00 0 0 7 - -
Mo, 06.12. 1:30 4 1 7 70° O
Ortszeit Untergrenze Bedeckung Gattung
total tief tief mittel hoch
Mo, 06.12. 1:00 690 m 8/8 8/8 - - -
So, 05.12. 19:00 1290 m 8/8 8/8 - - -
So, 05.12. 13:00 420 m 7/8 7/8 - - -
So, 05.12. 7:00 1230 m 7/8 7/8 - - -
So, 05.12. 1:00 1500 m 7/8 7/8 - - -
Sa, 04.12. 19:00 570 m 8/8 8/8 - - -
Sa, 04.12. 13:00 60 m 8/8 8/8 - - -
Sa, 04.12. 7:00 390 m 7/8 8/8 - - -
Ortszeit Bedeckungsgrad in Achtel und Wolkenuntergrenze
Mo, 06.12. 4:30 8(1800m)
Mo, 06.12. 4:20 8(1800m)
Mo, 06.12. 4:10 8(1800m)
Mo, 06.12. 4:00 1(690m) 7(1800m)
Mo, 06.12. 3:50 1(690m) 7(1800m)
Mo, 06.12. 3:40 3(690m) 6(1800m)
Mo, 06.12. 3:30 6(720m) 6(1800m)
Mo, 06.12. 3:00 1(300m) 8(720m)
Mo, 06.12. 2:30 3(750m)
Mo, 06.12. 2:00 3(720m) 7(2100m)
Mo, 06.12. 1:30 8(2100m)
Ortszeit Luftdruck NN (hPa) Tendenz (hPa in 3 Std.)
Mo, 06.12. 1:00 1011 + 1,8
So, 05.12. 19:00 1007 + 1,5
So, 05.12. 13:00 1005 - 0,1
So, 05.12. 7:00 1004 - 0,3
So, 05.12. 1:00 1004 + 2,0
Sa, 04.12. 19:00 998 + 2,8
Sa, 04.12. 13:00 997 - 2,4
Sa, 04.12. 7:00 1001 - 2,7
Ortszeit Luftdruck NN (hPa) Tendenz (hPa in 3 Std.)
Mo, 06.12. 4:30 1013 + 1,6
Mo, 06.12. 4:20 1013 keine Meldung
Mo, 06.12. 4:10 1013 keine Meldung
Mo, 06.12. 4:00 1013 + 1,6
Mo, 06.12. 3:50 1013 keine Meldung
Mo, 06.12. 3:40 1012 keine Meldung
Mo, 06.12. 3:30 1012 + 1,7
Mo, 06.12. 3:00 1012 + 1,8
Mo, 06.12. 2:30 1012 + 1,5
Mo, 06.12. 2:00 1011 + 1,4
Mo, 06.12. 1:30 1011 + 1,6
Ortszeit Schneehöhe (cm)
Mo, 06.12. 1:00 0
So, 05.12. 19:00 0
So, 05.12. 13:00 0
So, 05.12. 7:00 0
So, 05.12. 1:00 0
Sa, 04.12. 19:00 0
Sa, 04.12. 13:00 0
Sa, 04.12. 7:00 0
Ortszeit Schneehöhe (cm)
Mo, 06.12. 4:30 0
Mo, 06.12. 4:20 0
Mo, 06.12. 4:10 0
Mo, 06.12. 4:00 0
Mo, 06.12. 3:50 0
Mo, 06.12. 3:40 0
Mo, 06.12. 3:30 0
Mo, 06.12. 3:00 0
Mo, 06.12. 2:30 0
Mo, 06.12. 2:00 0
Mo, 06.12. 1:30 0
Link zu dieser Seite / Seite empfehlen

Das Wetter in ...